STARLINK-11464 [DTC] (62473 NORAD) Tracking and Keplerian Element Data

This shows tracking and keplerian element data for the satellite.

Feedback or suggestion? Click here.




ElementValue
Catalog62473
NameSTARLINK-11464 [DTC]
Epoch Orbit666
Epoch Day34.53920747
Epoch Year2025
RAAN109.958
Inclination42.9994
Eccentricity0.0001305
Argument of Perigee303.2757
Mean Anonmoly56.7988
Mean Motion15.77850241
Decay Rate6.602E-05
L11 62473U 24254M 25034.53920747 .00006602 00000+0 40781-4 0 9997
L22 62473 42.9994 109.9580 0001305 303.2757 56.7988 15.77850241 6660



Live tracking and technical data element details for STARLINK-11464 [DTC] (NORAD 62473). STARLINK-11464 [DTC] can be tracked NOW for your location showing map with azimuth and elevation plus other details from your city location.







IsCatalogInMostPopularTable: catalog: 62473, numindb: 15
Update: records affected: 1



GetName: 62473 STARLINK-11464 [DTC]

Hit Count: updated at: Sat, 24 May 2025 17:11:23 GMT